EST,Max TemperatureF,Mean TemperatureF,Min TemperatureF,Max Dew PointF,MeanDew PointF,Min DewpointF,Max Humidity, Mean Humidity, Min Humidity, Max Sea Level PressureIn, Mean Sea Level PressureIn, Min Sea Level PressureIn, Max VisibilityMiles, Mean VisibilityMiles, Min VisibilityMiles, Max Wind SpeedMPH, Mean Wind SpeedMPH, Max Gust SpeedMPH,PrecipitationIn, CloudCover, Events, WindDirDegrees
2012-11-1,46,42,39,36,31,18,87,66,34,29.87,29.80,29.75,10,10,10,22,15,32,0.00,5,,289
2012-11-2,53,48,42,34,25,18,58,44,28,29.99,29.89,29.84,10,10,10,23,9,31,0.00,3,,280
2012-11-3,57,47,37,41,29,21,93,53,25,30.12,30.06,29.99,10,10,3,24,8,38,0.07,2,Rain,304
2012-11-4,53,48,41,46,41,34,100,80,67,30.06,30.03,29.99,10,10,3,16,4,18,0.06,5,Rain,311
2012-11-5,51,43,35,34,28,21,87,59,33,30.09,30.06,30.03,10,10,10,15,7,21,0.00,0,,354
2012-11-6,39,34,30,30,29,27,93,75,65,30.10,30.02,29.93,10,10,5,10,3,,0.00,0,,108
2012-11-7,51,40,28,36,31,27,100,69,44,29.96,29.89,29.83,10,9,3,10,3,17,0.00,1,,354
2012-11-8,53,45,37,34,24,14,81,48,22,30.17,30.08,29.96,10,10,10,23,12,30,0.00,0,,304
2012-11-9,62,50,39,28,27,19,65,43,19,30.28,30.23,30.16,10,10,10,14,8,20,0.00,0,,287
2012-11-10,71,54,37,34,26,16,70,37,14,30.40,30.34,30.27,10,10,10,7,4,,0.00,0,,190
2012-11-11,68,60,51,52,37,25,77,45,21,30.48,30.42,30.38,10,10,10,13,7,22,0.00,1,,170
2012-11-12,62,54,46,61,56,45,100,91,82,30.41,30.30,30.21,10,8,0,23,12,29,0.33,7,Fog-Rain,178
2012-11-13,46,40,35,45,31,25,93,70,43,30.42,30.34,30.27,10,10,5,17,11,23,0.13,2,Rain,340
2012-11-14,48,38,28,32,28,25,93,71,50,30.46,30.39,30.33,10,10,10,7,2,,0.00,0,,97
2012-11-15,50,40,30,34,30,27,93,72,47,30.33,30.28,30.23,10,10,10,7,1,,0.00,0,,17
2012-11-16,55,42,30,32,26,16,100,58,21,30.41,30.31,30.26,10,10,5,10,3,,0.00,0,,356
2012-11-17,55,45,35,28,24,9,75,50,15,30.51,30.46,30.40,10,10,10,12,3,16,0.00,0,,45
2012-11-18,53,44,35,39,34,27,81,69,58,30.51,30.46,30.41,10,10,10,10,4,,0.00,3,,43
2012-11-19,57,48,39,46,42,36,100,85,63,30.42,30.32,30.22,10,8,1,6,2,,0.00,4,,7
2012-11-20,59,48,37,46,35,27,100,64,34,30.22,30.14,30.08,10,8,0,10,3,,0.00,2,Fog,285
2012-11-21,60,51,42,36,24,16,76,38,17,30.22,30.17,30.12,10,10,10,12,5,16,0.00,0,,342
2012-11-22,62,50,37,36,27,23,75,44,23,30.28,30.23,30.18,10,10,10,7,2,,0.00,0,,202
2012-11-23,60,50,39,46,35,27,82,60,45,30.18,30.05,29.94,10,10,10,22,7,37,0.00,1,,253
2012-11-24,39,32,24,28,20,16,74,59,45,30.07,30.01,29.95,10,10,10,28,14,37,0.00,2,,318
2012-11-25,55,39,23,19,10,-15,80,42,6,30.08,30.03,29.96,10,10,10,13,5,16,0.00,0,,267
2012-11-26,57,50,42,28,19,7,41,30,23,30.20,30.14,30.05,10,10,10,15,6,20,0.00,3,,264
2012-11-27,51,45,39,45,38,25,93,80,35,30.22,30.16,30.12,10,10,5,15,5,18,0.01,7,Rain,320
2012-11-28,46,40,33,32,24,18,81,57,32,30.36,30.29,30.21,10,10,10,16,8,21,0.00,3,,304
2012-11-29,53,42,30,32,24,16,81,55,22,30.43,30.36,30.32,10,10,10,9,4,,0.00,0,,206
2012-11-30,60,46,33,36,30,19,87,59,20,30.38,30.33,30.27,10,10,10,9,3,,0.00,0,,198